TimeCST,TemperatureF,Dew PointF,Humidity,Sea Level PressureIn,VisibilityMPH,Wind Direction,Wind SpeedMPH,Gust SpeedMPH,PrecipitationIn,Events,Conditions,WindDirDegrees,DateUTC
12:53 AM,32.0,23.0,69,30.29,10.0,North,9.2,-,N/A,,Clear,360,2013-01-24 06:53:00
1:53 AM,32.0,19.0,59,30.31,10.0,North,15.0,21.9,N/A,,Clear,360,2013-01-24 07:53:00
2:53 AM,30.0,19.0,64,30.35,10.0,North,12.7,-,N/A,,Clear,10,2013-01-24 08:53:00
3:53 AM,28.0,17.1,63,30.37,10.0,NNE,18.4,26.5,N/A,,Clear,20,2013-01-24 09:53:00
4:53 AM,26.1,16.0,66,30.40,10.0,NNE,15.0,-,N/A,,Clear,20,2013-01-24 10:53:00
5:53 AM,24.1,14.0,65,30.45,10.0,NNE,17.3,-,N/A,,Clear,20,2013-01-24 11:53:00
6:53 AM,21.9,10.9,63,30.49,10.0,NNE,16.1,21.9,N/A,,Clear,30,2013-01-24 12:53:00
7:53 AM,21.9,10.0,60,30.51,10.0,NNE,17.3,-,N/A,,Clear,30,2013-01-24 13:53:00
8:53 AM,23.0,9.0,55,30.53,10.0,NE,15.0,-,N/A,,Clear,40,2013-01-24 14:53:00
9:53 AM,25.0,8.1,49,30.56,10.0,NE,15.0,-,N/A,,Clear,40,2013-01-24 15:53:00
10:53 AM,28.0,10.0,47,30.56,10.0,ENE,16.1,-,N/A,,Clear,70,2013-01-24 16:53:00
11:53 AM,28.9,10.9,47,30.53,10.0,ENE,11.5,19.6,N/A,,Clear,70,2013-01-24 17:53:00
12:53 PM,30.9,12.0,46,30.49,10.0,East,11.5,-,N/A,,Clear,80,2013-01-24 18:53:00
1:53 PM,32.0,12.9,45,30.47,10.0,East,11.5,-,N/A,,Clear,90,2013-01-24 19:53:00
2:53 PM,32.0,12.0,44,30.45,10.0,East,13.8,-,N/A,,Clear,90,2013-01-24 20:53:00
3:53 PM,33.1,10.9,40,30.41,10.0,ENE,13.8,-,N/A,,Clear,70,2013-01-24 21:53:00
4:53 PM,30.0,12.0,47,30.42,10.0,East,10.4,-,N/A,,Clear,80,2013-01-24 22:53:00
5:53 PM,28.9,12.0,49,30.42,10.0,ENE,6.9,-,N/A,,Partly Cloudy,70,2013-01-24 23:53:00
6:53 PM,30.0,10.0,43,30.40,10.0,East,9.2,-,N/A,,Overcast,90,2013-01-25 00:53:00
7:53 PM,30.9,10.9,43,30.38,10.0,East,10.4,-,N/A,,Overcast,90,2013-01-25 01:53:00
8:53 PM,30.9,8.1,38,30.36,10.0,ESE,11.5,-,N/A,,Overcast,110,2013-01-25 02:53:00
9:53 PM,30.9,7.0,37,30.34,10.0,East,10.4,-,N/A,,Overcast,100,2013-01-25 03:53:00
10:53 PM,30.9,9.0,40,30.32,10.0,East,5.8,-,N/A,,Overcast,100,2013-01-25 04:53:00
11:53 PM,30.9,7.0,37,30.27,10.0,East,10.4,-,N/A,,Overcast,100,2013-01-25 05:53:00